DW2270 Weather Reports


Display with metric or nautical units.
time (UTC)temp
F
wind
direction
speed
MPH
gust
MPH
rain 1hr
in
rain 24hr
in
rain mn
in
humidity
%
barometer
mb
20260906014453 79 0 0.0 0.0 0.00 0.03 0.03 1 1011.1
20260906013447 79 0 0.0 0.0 0.00 0.03 0.03 1 1010.9
20260906011332 79 0 0.0 0.0 0.00 0.03 0.03 1 1010.8
20260906010351 79 0 0.0 0.0 0.00 0.03 0.03 1 1010.7
20260906005406 80 0 0.0 0.0 0.00 0.03 0.03 1 1010.6
20260906004405 80 0 0.0 0.0 0.00 0.03 0.03 1 1010.8
20260906003344 80 0 0.0 0.0 0.00 0.03 0.03 1 1011.1
20260906002357 80 0 0.0 0.0 0.00 0.03 0.03 1 1011.1
20260906001329 80 0 0.0 0.0 0.00 0.03 0.03 1 1011.3
20260905235145 81 340 0.0 0.0 0.00 0.02 0.02 1 1011.6
20260905232946 82 341 0.0 0.0 0.00 0.02 0.02 1 1011.6
20260905232010 82 341 0.0 0.0 0.00 0.02 0.02 1 1011.5
20260905231024 83 143 0.0 0.0 0.00 0.02 0.02 1 1011.5
20260905230020 83 143 0.0 0.0 0.00 0.02 0.02 1 1011.4
20260905225029 83 144 0.0 0.0 0.00 0.02 0.02 1 1011.3
20260905223958 83 144 0.0 0.0 0.00 0.02 0.02 1 1011.0
20260905222935 83 144 0.0 0.0 0.00 0.02 0.02 1 1011.2
20260905221941 84 144 0.0 0.0 0.00 0.02 0.02 1 1011.3
20260905220938 85 144 0.0 0.0 0.00 0.01 0.02 1 1010.9
20260905215904 85 144 0.0 0.0 0.00 0.01 0.01 1 1011.2
20260905214908 86 144 0.0 1.0 0.00 0.01 0.01 10 1011.5
20260905213913 87 144 0.0 3.0 0.00 0.01 0.01 27 1011.3
20260905212858 88 319 0.0 5.0 0.00 0.00 0.00 39 1011.1
20260905210809 91 313 0.0 4.0 0.00 0.00 0.00 55 1010.9
20260905205805 92 121 0.0 4.0 0.00 0.00 0.00 56 1010.9
20260905204829 94 84 0.0 0.0 0.00 0.00 0.00 56 1010.8
20260905203816 93 84 0.0 0.0 0.00 0.00 0.00 56 1010.7
20260905202814 93 84 0.0 2.0 0.00 0.00 0.00 56 1010.7
20260905200652 93 44 0.0 1.0 0.00 0.00 0.00 55 1011.1
20260905194523 93 118 0.0 0.0 0.00 0.00 0.00 56 1011.2
20260905193520 93 71 0.0 0.0 0.00 0.00 0.00 56 1011.2
20260905192536 93 71 0.0 0.0 0.00 0.00 0.00 56 1011.4
20260905191601 93 71 0.0 0.0 0.00 0.00 0.00 55 1011.7
20260905190607 94 71 0.0 0.0 0.00 0.00 0.00 56 1011.8
20260905185632 94 71 0.0 0.0 0.00 0.00 0.00 56 1011.8
20260905184646 95 71 0.0 0.0 0.00 0.00 0.00 56 1012.0
20260905182431 95 71 0.0 2.0 0.00 0.00 0.00 55 1012.2
20260905181454 95 102 0.0 2.0 0.00 0.00 0.00 55 1012.3
20260905180512 95 202 0.0 0.0 0.00 0.00 0.00 56 1012.6
20260905175457 95 103 0.0 1.0 0.00 0.00 0.00 55 1012.8
20260905174518 95 104 0.0 2.0 0.00 0.00 0.00 56 1013.0
20260905172351 93 128 0.0 1.0 0.00 0.00 0.00 56 1013.4
20260905171345 93 78 0.0 2.0 0.00 0.00 0.00 56 1013.5
20260905170359 93 78 0.0 0.0 0.00 0.00 0.00 55 1013.6
20260905163058 91 355 0.0 0.0 0.00 0.00 0.00 48 1013.8
20260905162033 90 326 0.0 4.0 0.00 0.00 0.00 48 1013.8
20260905161003 89 224 0.0 4.0 0.00 0.00 0.00 39 1013.8
20260905160008 88 151 0.0 0.0 0.00 0.00 0.00 21 1013.8
20260905155009 86 67 0.0 0.0 0.00 0.00 0.00 1 1013.9
20260905154007 85 23 0.0 0.0 0.00 0.00 0.00 1 1014.0
20260905152947 85 23 0.0 0.0 0.00 0.00 0.00 1 1013.9
20260905150807 83 145 0.0 0.0 0.00 0.00 0.00 1 1013.8
20260905144651 82 145 0.0 0.0 0.00 0.00 0.00 1 1013.8
20260905143711 82 145 0.0 0.0 0.00 0.00 0.00 1 1013.8
20260905142706 81 148 0.0 0.0 0.00 0.00 0.00 1 1013.7
20260905140540 80 148 0.0 0.0 0.00 0.00 0.00 1 1013.8
20260905135518 79 148 0.0 0.0 0.00 0.00 0.00 1 1013.8
20260905134520 79 148 0.0 0.0 0.00 0.00 0.00 1 1013.7
20260905133533 78 148 0.0 0.0 0.00 0.00 0.00 1 1013.7
20260905131426 76 148 0.0 0.0 0.00 0.00 0.00 1 1013.6
20260905130448 76 148 0.0 0.0 0.00 0.00 0.00 1 1013.6
20260905125449 75 148 0.0 0.0 0.00 0.00 0.00 1 1013.4
20260905124449 75 148 0.0 0.0 0.00 0.00 0.00 1 1013.3
20260905123501 75 148 0.0 0.0 0.00 0.00 0.00 1 1013.2
20260905122458 75 148 0.0 0.0 0.00 0.00 0.00 1 1013.0
20260905120352 76 148 0.0 0.0 0.00 0.00 0.00 1 1012.8
20260905115320 76 148 0.0 0.0 0.00 0.00 0.00 1 1012.7
20260905114316 76 148 0.0 0.0 0.00 0.00 0.00 1 1012.7
20260905112127 76 148 0.0 0.0 0.00 0.00 0.00 1 1012.4
20260905111140 76 148 0.0 0.0 0.00 0.00 0.00 1 1012.3
20260905105017 76 148 0.0 0.0 0.00 0.00 0.00 1 1012.1
20260905102841 76 148 0.0 0.0 0.00 0.00 0.00 1 1012.1
20260905101833 76 148 0.0 0.0 0.00 0.00 0.00 1 1012.1
20260905100802 76 137 0.0 0.0 0.00 0.00 0.00 1 1012.1
20260905095752 76 137 0.0 0.0 0.00 0.00 0.00 1 1012.0
20260905094817 76 137 0.0 0.0 0.00 0.00 0.00 1 1012.1
20260905090432 76 137 0.0 0.0 0.00 0.01 0.00 1 1012.0
20260905085425 76 137 0.0 0.0 0.00 0.02 0.00 1 1012.0
20260905083335 77 137 0.0 0.0 0.00 0.04 0.00 1 1012.0
20260905082342 77 137 0.0 0.0 0.00 0.04 0.00 1 1011.9
20260905081321 77 137 0.0 0.0 0.00 0.04 0.00 1 1012.0
20260905080301 77 137 0.0 0.0 0.00 0.04 0.00 1 1011.9
20260905074053 77 137 0.0 0.0 0.00 0.04 0.00 1 1012.0
20260905071915 77 137 0.0 0.0 0.00 0.04 0.00 1 1012.2
20260905070926 77 137 0.0 0.0 0.00 0.04 0.00 1 1012.3
20260905065851 77 137 0.0 0.0 0.00 0.04 0.00 1 1012.5
20260905064846 77 137 0.0 0.0 0.00 0.04 0.00 1 1012.5
20260905063841 78 137 0.0 0.0 0.00 0.04 0.00 1 1012.5
20260905062834 78 137 0.0 0.0 0.00 0.04 0.00 1 1012.6
20260905061825 78 137 0.0 0.0 0.00 0.04 0.00 1 1012.5
20260905060826 78 137 0.0 0.0 0.00 0.04 0.00 1 1012.6
20260905055848 78 137 0.0 0.0 0.00 0.04 0.00 1 1012.6
20260905051454 78 137 0.0 0.0 0.00 0.04 0.00 1 1012.6
20260905050509 79 137 0.0 0.0 0.00 0.04 0.00 1 1012.6
20260905045531 79 137 0.0 0.0 0.00 0.04 0.05 1 1012.7
20260905044524 79 137 0.0 0.0 0.00 0.04 0.05 1 1012.6
20260905043505 79 137 0.0 0.0 0.00 0.04 0.05 1 1012.6
20260905042455 79 137 0.0 0.0 0.00 0.04 0.05 1 1012.7
20260905040340 79 137 0.0 0.0 0.00 0.04 0.05 1 1012.6
20260905035343 80 137 0.0 0.0 0.00 0.04 0.05 1 1012.7
20260905034316 80 137 0.0 0.0 0.00 0.04 0.05 1 1012.8
20260905033320 80 137 0.0 0.0 0.00 0.04 0.05 1 1012.7
20260905032317 80 137 0.0 0.0 0.00 0.04 0.05 1 1012.9
20260905031257 80 137 0.0 0.0 0.00 0.04 0.05 1 1012.8
20260905030253 80 137 0.0 0.0 0.00 0.04 0.05 1 1012.8
20260905024056 81 137 0.0 0.0 0.00 0.04 0.05 1 1012.8
20260905023025 81 137 0.0 0.0 0.00 0.04 0.05 1 1012.8
20260905022028 81 137 0.0 0.0 0.00 0.04 0.05 1 1012.7
20260905021052 82 137 0.0 0.0 0.00 0.04 0.05 1 1012.5
20260905020113 82 137 0.0 0.0 0.00 0.04 0.05 1 1012.5
20260905015127 82 137 0.0 0.0 0.00 0.04 0.05 1 1012.2